TimeCST,TemperatureF,Dew PointF,Humidity,Sea Level PressureIn,VisibilityMPH,Wind Direction,Wind SpeedMPH,Gust SpeedMPH,PrecipitationIn,Events,Conditions,WindDirDegrees,DateUTC
12:53 AM,19.0,14.0,81,30.13,10.0,Calm,Calm,-,N/A,,Clear,0,2014-01-19 06:53:00
1:53 AM,18.0,12.9,81,30.14,10.0,SW,4.6,-,0.00,,Clear,230,2014-01-19 07:53:00
2:53 AM,18.0,12.9,81,30.11,10.0,SSW,4.6,-,N/A,,Clear,200,2014-01-19 08:53:00
3:53 AM,19.9,15.1,81,30.12,10.0,SW,5.8,-,N/A,,Clear,230,2014-01-19 09:53:00
4:53 AM,21.0,16.0,81,30.07,10.0,SW,13.8,-,N/A,,Clear,230,2014-01-19 10:53:00
5:53 AM,24.1,18.0,77,30.05,10.0,SW,13.8,-,N/A,,Clear,220,2014-01-19 11:53:00
6:53 AM,24.1,19.0,81,30.06,10.0,SSW,15.0,-,N/A,,Clear,210,2014-01-19 12:53:00
7:53 AM,27.0,21.0,78,30.05,10.0,SW,17.3,-,N/A,,Clear,220,2014-01-19 13:53:00
8:53 AM,30.9,23.0,72,30.04,10.0,SW,12.7,-,N/A,,Clear,220,2014-01-19 14:53:00
9:53 AM,37.0,24.1,59,30.02,10.0,SSW,15.0,-,N/A,,Clear,210,2014-01-19 15:53:00
10:53 AM,45.0,25.0,46,29.99,10.0,SSW,16.1,-,N/A,,Clear,210,2014-01-19 16:53:00
11:53 AM,51.1,24.1,35,29.94,10.0,SW,19.6,-,N/A,,Clear,220,2014-01-19 17:53:00
12:53 PM,54.0,23.0,30,29.90,10.0,SW,19.6,-,N/A,,Clear,220,2014-01-19 18:53:00
1:53 PM,59.0,21.0,23,29.85,10.0,SW,19.6,26.5,N/A,,Clear,230,2014-01-19 19:53:00
2:53 PM,61.0,19.9,21,29.84,10.0,SW,19.6,-,N/A,,Clear,220,2014-01-19 20:53:00
3:53 PM,62.1,19.9,20,29.82,10.0,SW,19.6,26.5,N/A,,Clear,220,2014-01-19 21:53:00
4:53 PM,57.9,21.0,24,29.83,10.0,SW,12.7,-,N/A,,Clear,230,2014-01-19 22:53:00
5:53 PM,50.0,21.9,33,29.83,10.0,SW,11.5,-,N/A,,Clear,220,2014-01-19 23:53:00
6:53 PM,50.0,23.0,35,29.85,10.0,SW,13.8,-,N/A,,Clear,230,2014-01-20 00:53:00
7:53 PM,48.9,23.0,36,29.86,10.0,SW,10.4,-,N/A,,Clear,230,2014-01-20 01:53:00
8:53 PM,44.1,23.0,43,29.86,10.0,SW,6.9,-,N/A,,Clear,230,2014-01-20 02:53:00
9:53 PM,44.1,23.0,43,29.86,10.0,SW,11.5,-,N/A,,Clear,230,2014-01-20 03:53:00
10:53 PM,41.0,21.9,47,29.87,10.0,West,5.8,-,N/A,,Clear,270,2014-01-20 04:53:00
11:53 PM,42.1,23.0,47,29.88,10.0,WSW,4.6,-,N/A,,Clear,250,2014-01-20 05:53:00